Regional Weather Roundup
Issued by NWS Mt. Holly, NJ

Home | Current Version | Previous Version | Text Only | Print | Product List | Glossary On
Versions: 1 2 3 4 5 6 7 8 9 10 11 12 13 14 15 16 17 18 19 20 21 22 23 24 25 26 27 28 29 30 31 32 33 34 35 36 37 38 39 40 41 42 43 44 45 46 47 48 49 50
000
ASUS41 KPHI 230610
RWRPHI

REGIONAL WEATHER ROUNDUP
NATIONAL WEATHER SERVICE MOUNT HOLLY NJ
200 AM EDT SAT AUG 23 2014

NOTE:  "FAIR" INDICATES FEW OR NO CLOUDS BELOW 12,000 FEET WITH NO
SIGNIFICANT WEATHER AND/OR OBSTRUCTIONS TO VISIBILITY.

 * = STATION DOES NOT REPORT PRECIPITATION (E.G. RAIN, SNOW, ETC.)
        OR FOG.

NJZ015>026-230700-
SOUTHERN NEW JERSEY

CITY           SKY/WX    TMP DP  RH WIND       PRES   REMARKS
POMONA         FAIR      64  62  93 CALM      30.00F
6HR MIN TEMP:  63; 6HR MAX TEMP:  68;

RIO GRANDE*    FAIR      70  61  73 NE6       30.00F
MILLVILLE      FAIR      65  62  90 NE5       30.00F
WRIGHTSTOWN    FAIR      65  63  92 NE6       30.00F
MOUNT HOLLY    FAIR      65  62  90 CALM      30.02F
TRENTON        CLOUDY    67  62  84 NE6       30.02F
6HR MIN TEMP:  67; 6HR MAX TEMP:  72;


$$
NJZ001>014-230700-
NORTHERN NEW JERSEY

CITY           SKY/WX    TMP DP  RH WIND       PRES   REMARKS
SUSSEX         CLOUDY    67  62  84 CALM      30.06S
ANDOVER*         N/A     64  61  90 CALM      30.06F
MORRISTOWN     FAIR      63  59  88 CALM      30.05S
NEWARK         MOCLDY    70  58  65 E10       30.05S
TETERBORO      CLOUDY    70  56  61 E7        30.05R
CALDWELL       FAIR      64  57  78 NE3       30.06S
SOMERVILLE     MOCLDY    67  60  78 N3        30.02F
ALLAIRE*       CLOUDY    68  59  73 NE8       30.03F
TOMS RIVER*    CLOUDY    68  63  83 NE5       30.02F

$$
PAZ043-044-047-054-055-060>062-066>071-230700-
EASTERN PENNSYLVANIA

CITY           SKY/WX    TMP DP  RH WIND       PRES   REMARKS
PHILADELPHIA   FAIR      68  62  81 NE5       30.03F
6HR MIN TEMP:  67; 6HR MAX TEMP:  73;

NORTH PHILA    FAIR      69  61  75 NE3       30.04F
BLUE BELL      FAIR      63  63 100 CALM      30.03S
DOYLESTOWN     CLOUDY    66  62  87 CALM      30.03F
QUAKERTOWN*    CLOUDY    66  63  88 CALM      30.05S
POTTSTOWN      FAIR      63  59  87 CALM      30.05F
LANCASTER      CLOUDY    68  63  84 E6        30.02F
COATESVILLE    FAIR      64  64 100 CALM      30.04F
READING        CLOUDY    70  57  63 SE3       30.03S
6HR MIN TEMP:  70; 6HR MAX TEMP:  74;

ALLENTOWN      CLOUDY    67  60  78 NE5       30.04F
6HR MIN TEMP:  67; 6HR MAX TEMP:  73;

MOUNT POCONO   CLOUDY    61  58  90 E6        30.08F FOG
6HR MIN TEMP:  61; 6HR MAX TEMP:  63; 6HR PCP:  0.01;

HAZLETON       DRIZZLE   63  61  94 SE5       30.09S
WILKES BARRE   CLOUDY    66  59  78 VRB3      30.05F

$$
DEZALL-MDZ008-012-015-019-020-230700-
DELAWARE AND EASTERN MARYLAND

CITY           SKY/WX    TMP DP  RH WIND       PRES   REMARKS
WILMINGTON     FAIR      69  62  78 NE9       30.02F
6HR MIN TEMP:  68; 6HR MAX TEMP:  75;

DOVER          FAIR      67  65  92 VRB2      29.99F
GEORGETOWN     FAIR      67  64  90 E10       30.00F
6HR MIN TEMP:  67; 6HR MAX TEMP:  73;

EASTON         FAIR      69  69 100 CALM      30.04S
PATUXENT       MOCLDY    71  68  90 E10       29.98F
OCEAN CITY     FAIR      73  66  78 E8        29.98F
WALLOPS ISLAND FAIR      72  68  87 NE5       29.99S
CAMBRIDGE      FAIR      68  64  88 CALM      29.99S
SALISBURY      FAIR      69  65  86 CALM      29.98F

$$
PAZ001-021-NYZ056-072-MDZ011-DCZ001-230700-
OTHER NEARBY LOCATIONS

CITY           SKY/WX    TMP DP  RH WIND       PRES   REMARKS
HARRISBURG     CLOUDY    71  64  78 SE9       30.01R
STATE COLLEGE  CLOUDY    68  66  95 CALM      30.01F FOG
WILLIAMSPORT   LGT RAIN  67  65  93 E13       29.99F
BINGHAMTON     CLOUDY    62  59  90 SE9       30.06S
NEW YORK CITY  CLOUDY    69  56  62 VRB6      30.08S
BALTIMORE      MOCLDY    71  65  81 E7        30.00F
WASHINGTON DC  CLOUDY    75  67  76 E6        30.00S

$$



USA.gov is the U.S. government's official web portal to all federal, state and local government web resources and services.